Weather History for KBUF - October, 2012

Change the Weather History Date:

Saturday, October 27, 2012

  Actual Average Record
Temperature  
Mean Temperature 46 °F 47 °F  
Max Temperature 48 °F 55 °F 83 °F (1947)
Min Temperature 43 °F 39 °F 23 °F (1976)
Degree Days  
Heating Degree Days 19 18  
Month to date heating degree days 311 368  
Since 1 July heating degree days 436 530  
Cooling Degree Days 0 0  
Month to date cooling degree days 4 0  
Year to date cooling degree days 875 540  
Moisture  
Dew Point 44 °F    
Average Humidity 88    
Maximum Humidity 93    
Minimum Humidity 83    
Precipitation  
Precipitation 0.67 in 0.12 in 1.01 in (1954)
Month to date precipitation 4.60 3.08  
Year to date precipitation 25.73 32.14  
Snow  
Snow 0.00 in 0.10 in 0.10 in (1934)
Month to date snowfall 0.0 0.7  
Since 1 July snowfall 0.0 0.7  
Since 1 September snowfall 0.0 0.7  
Snow Depth 0.00 in    
Sea Level Pressure  
Sea Level Pressure 30.07 in    
Wind  
Wind Speed 10 mph (North)    
Max Wind Speed 18 mph    
Max Gust Speed 23 mph    
Visibility 5 miles    
Events Rain    
T = Trace of Precipitation, MM = Missing Value Source: NWS Daily Summary

Daily Weather History Graph

Daily Weather History Graph

Search for Another Location

Airport or City:

Trip Planner

Search our weather history database for the weather conditions in past years. The results will help you decide how hot, cold, wet, or windy it might be!

Date:

Astronomy

Oct. 27, 2012 Rise Set
Actual Time 7:43 AM EDT 6:13 PM EDT
Civil Twilight 7:14 AM EDT 6:42 PM EDT
Nautical Twilight 6:41 AM EDT 7:15 PM EDT
Astronomical Twilight 6:08 AM EDT 7:48 PM EDT
Moon 4:59 PM EDT (10/27) 5:34 AM EDT (10/27)
Length of Visible Light 11h 28m
Length of Day
10h 29m
Waxing Gibbous, 96% of the Moon is Illuminated
Oct 27
Waxing Gibbous
Oct 29
Full
Nov 6
Last Quarter
Nov 13
New
Nov 20
First Quarter

Hourly Weather History & Observations

Time (EDT) Temp. Windchill Dew Point Humidity Pressure Visibility Wind Dir Wind Speed Gust Speed Precip Events Conditions
12:35 AM 46.4 °F 44.3 °F 44.6 °F 93% 30.16 in 10.0 mi North 4.6 mph - 0.02 in Rain Light Rain
12:54 AM 46.9 °F - 44.1 °F 90% 30.16 in 10.0 mi North 8.1 mph - 0.02 in Rain Light Rain
1:06 AM 46.4 °F 44.3 °F 44.6 °F 93% 30.16 in 10.0 mi North 4.6 mph - 0.00 in Rain Light Rain
1:37 AM 46.4 °F 42.9 °F 42.8 °F 87% 30.15 in 7.0 mi NNW 6.9 mph - 0.00 in Rain Light Rain
1:54 AM 46.0 °F 42.5 °F 43.0 °F 89% 30.15 in 3.0 mi North 6.9 mph - 0.03 in Rain Light Rain
2:01 AM 46.4 °F 42.9 °F 42.8 °F 87% 30.13 in 3.0 mi North 6.9 mph - 0.02 in Rain Light Rain
2:54 AM 45.0 °F 39.7 °F 43.0 °F 93% 30.12 in 5.0 mi NNE 10.4 mph - 0.11 in Rain Light Rain
3:16 AM 46.4 °F 43.5 °F 42.8 °F 87% 30.12 in 7.0 mi North 5.8 mph - 0.01 in Rain Light Rain
3:54 AM 46.0 °F 43.1 °F 43.0 °F 89% 30.12 in 4.0 mi North 5.8 mph - 0.03 in Rain Light Rain
4:54 AM 46.0 °F 43.1 °F 43.0 °F 89% 30.11 in 5.0 mi North 5.8 mph - 0.07 in Rain Light Rain
5:09 AM 46.4 °F 43.5 °F 42.8 °F 87% 30.09 in 6.0 mi North 5.8 mph - 0.03 in Rain Light Rain
5:54 AM 46.0 °F 42.5 °F 43.0 °F 89% 30.09 in 8.0 mi NNE 6.9 mph - 0.03 in Rain Light Rain
6:54 AM 46.0 °F 42.5 °F 44.1 °F 93% 30.08 in 3.0 mi NNE 6.9 mph - 0.01 in Rain Light Rain
7:54 AM 46.9 °F - 45.0 °F 93% 30.07 in 2.5 mi North 5.8 mph - 0.01 in Rain Light Rain
8:25 AM 48.2 °F - 44.6 °F 87% 30.06 in 2.0 mi North 8.1 mph - 0.02 in Rain Light Rain
8:45 AM 46.4 °F 41.5 °F 44.6 °F 93% 30.06 in 1.8 mi NNE 10.4 mph - 0.03 in Rain Light Rain
8:54 AM 46.9 °F - 45.0 °F 93% 30.08 in 2.0 mi NNE 11.5 mph 16.1 mph 0.03 in Rain Light Rain
9:23 AM 46.4 °F 42.4 °F 44.6 °F 93% 30.06 in 1.8 mi North 8.1 mph - 0.01 in Rain Light Rain
9:54 AM 48.0 °F - 46.0 °F 93% 30.07 in 1.5 mi NNE 9.2 mph 16.1 mph 0.02 in Rain Light Rain
10:10 AM 48.2 °F - 46.4 °F 93% 30.05 in 2.5 mi NNE 9.2 mph - 0.01 in Rain Light Rain
10:31 AM 48.2 °F - 44.6 °F 87% 30.05 in 7.0 mi NNE 12.7 mph 18.4 mph 0.01 in Rain Light Rain
10:54 AM 48.0 °F - 45.0 °F 89% 30.06 in 10.0 mi NNE 11.5 mph 16.1 mph 0.02 in Rain Light Rain
11:18 AM 48.2 °F - 44.6 °F 87% 30.05 in 1.5 mi North 9.2 mph 17.3 mph 0.00 in Rain Light Rain
11:54 AM 46.9 °F - 45.0 °F 93% 30.05 in 1.8 mi NNE 11.5 mph - 0.03 in Rain Light Rain
12:10 PM 46.4 °F 41.1 °F 44.6 °F 93% 30.03 in 4.0 mi NNE 11.5 mph - 0.01 in Rain Light Rain
12:22 PM 46.4 °F 41.9 °F 44.6 °F 93% 30.03 in 2.0 mi North 9.2 mph - 0.01 in Rain Light Rain
12:54 PM 46.9 °F - 45.0 °F 93% 30.03 in 1.2 mi North 8.1 mph - 0.02 in Rain Light Rain
1:10 PM 46.4 °F 41.5 °F 44.6 °F 93% 30.01 in 2.5 mi NNE 10.4 mph - 0.02 in Rain Light Rain
1:29 PM 46.4 °F 41.9 °F 44.6 °F 93% 29.99 in 5.0 mi NNE 9.2 mph 17.3 mph 0.03 in Rain Light Rain
1:54 PM 46.9 °F - 45.0 °F 93% 30.01 in 2.0 mi North 11.5 mph - 0.03 in Rain Light Rain
2:16 PM 46.4 °F 41.5 °F 44.6 °F 93% 29.99 in 1.5 mi North 10.4 mph - 0.01 in Rain Light Rain
2:54 PM 48.0 °F - 45.0 °F 89% 29.99 in 2.0 mi North 10.4 mph - 0.05 in Rain Light Rain
3:34 PM 46.4 °F 40.7 °F 44.6 °F 93% 29.99 in 3.0 mi North 12.7 mph - 0.04 in Rain Light Rain
3:54 PM 46.9 °F - 44.1 °F 90% 30.01 in 2.5 mi North 17.3 mph 23.0 mph 0.05 in Rain Light Rain
4:09 PM 46.4 °F 39.5 °F 44.6 °F 93% 30.00 in 1.5 mi North 17.3 mph 23.0 mph 0.01 in Rain Light Rain
4:18 PM 46.4 °F 41.1 °F 44.6 °F 93% 30.01 in 3.0 mi North 11.5 mph - 0.01 in Rain Light Rain
4:31 PM 46.4 °F 39.5 °F 44.6 °F 93% 30.01 in 2.5 mi North 17.3 mph 23.0 mph 0.02 in Rain Light Rain
4:54 PM 46.9 °F - 44.1 °F 90% 30.04 in 4.0 mi North 12.7 mph - 0.03 in Rain Light Rain
5:54 PM 46.0 °F 40.6 °F 44.1 °F 93% 30.06 in 7.0 mi North 11.5 mph - 0.00 in Rain Light Rain
6:17 PM 46.4 °F 40.4 °F 42.8 °F 87% 30.05 in 2.0 mi North 13.8 mph 20.7 mph 0.00 in Rain Light Rain
6:30 PM 44.6 °F 38.4 °F 42.8 °F 93% 30.06 in 3.0 mi NNW 12.7 mph - 0.01 in Rain Rain
6:54 PM 45.0 °F 38.2 °F 42.1 °F 90% 30.09 in 4.0 mi North 15.0 mph - 0.04 in Rain Rain
7:54 PM 45.0 °F 39.7 °F 42.1 °F 90% 30.10 in 10.0 mi North 10.4 mph - 0.05 in Rain Light Rain
8:54 PM 44.1 °F 39.5 °F 42.1 °F 93% 30.09 in 10.0 mi North 8.1 mph 16.1 mph 0.01 in Rain Light Rain
9:54 PM 44.1 °F 39.0 °F 41.0 °F 89% 30.10 in 10.0 mi North 9.2 mph - 0.00 in   Overcast
10:54 PM 44.1 °F 40.1 °F 41.0 °F 89% 30.10 in 10.0 mi North 6.9 mph - N/A   Overcast
11:24 PM 44.6 °F 40.2 °F 41.0 °F 87% 30.09 in 10.0 mi North 8.1 mph - N/A   Overcast
11:54 PM 44.1 °F 38.1 °F 39.9 °F 85% 30.09 in 10.0 mi North 11.5 mph - N/A   Overcast